Orbital Elements at Epoch 2459000.5 (2020-May-31.0) TDB
Reference: JPL 24 (heliocentric ecliptic J2000)
Element | Value | Uncertainty (1-sigma) | Units |
e | .1477556096402525 | 5.2583e-08 | |
a | 2.597609339322473 | 1.2841e-08 | au |
q | 2.213797987783667 | 1.4043e-07 | au |
i | 15.74312528084074 | 5.1103e-06 | deg |
node | 80.76256569606112 | 1.9321e-05 | deg |
peri | 180.6345280186174 | 2.6414e-05 | deg |
M | 320.16325327157 | 1.8389e-05 | deg |
tp | 2459169.715657667832 (2020-Nov-16.21565767) | 7.8399e-05 | TDB |
period | 1529.182018192888 4.19 | 1.1339e-05 3.104e-08 | d yr |
n | .2354199799088863 | 1.7457e-09 | deg/d |
Q | 2.981420690861279 | 1.4738e-08 | au |
|
| | Orbit Determination Parameters
Additional Information
|